TimeEST,TemperatureF,Dew PointF,Humidity,Sea Level PressureIn,VisibilityMPH,Wind Direction,Wind SpeedMPH,Gust SpeedMPH,PrecipitationIn,Events,Conditions,WindDirDegrees,DateUTC
12:54 AM,35.1,30.0,82,29.90,9.0,West,10.4,-,N/A,,Overcast,260,2012-12-11 05:54:00
1:54 AM,35.1,30.0,82,29.91,9.0,West,8.1,-,N/A,,Overcast,270,2012-12-11 06:54:00
2:54 AM,35.1,30.0,82,29.93,8.0,West,8.1,-,N/A,,Overcast,280,2012-12-11 07:54:00
3:27 AM,35.6,30.2,81,29.91,9.0,West,6.9,-,N/A,,Overcast,270,2012-12-11 08:27:00
3:54 AM,35.1,30.0,82,29.94,8.0,West,6.9,-,N/A,,Overcast,260,2012-12-11 08:54:00
4:28 AM,35.6,30.2,81,29.93,9.0,West,6.9,-,N/A,,Overcast,260,2012-12-11 09:28:00
4:54 AM,35.1,30.0,82,29.95,10.0,West,6.9,-,N/A,,Overcast,260,2012-12-11 09:54:00
5:30 AM,35.6,30.2,81,29.95,9.0,West,6.9,-,N/A,,Overcast,270,2012-12-11 10:30:00
5:54 AM,35.1,30.0,82,29.99,7.0,WSW,9.2,-,N/A,,Overcast,250,2012-12-11 10:54:00
6:15 AM,33.8,30.2,87,29.96,6.0,WSW,6.9,-,N/A,,Overcast,250,2012-12-11 11:15:00
6:54 AM,35.1,32.0,89,29.99,8.0,WSW,4.6,-,N/A,,Overcast,250,2012-12-11 11:54:00
7:09 AM,35.6,32.0,87,29.98,4.0,WSW,4.6,-,N/A,,Overcast,250,2012-12-11 12:09:00
7:46 AM,35.6,32.0,87,29.99,8.0,West,3.5,-,N/A,,Overcast,260,2012-12-11 12:46:00
7:54 AM,35.1,30.9,85,30.02,7.0,WSW,3.5,-,N/A,,Overcast,240,2012-12-11 12:54:00
8:17 AM,35.6,32.0,87,30.01,2.5,SW,5.8,-,N/A,,Overcast,220,2012-12-11 13:17:00
8:24 AM,33.8,30.2,87,30.01,0.8,SW,4.6,-,0.00,Snow,Light Snow,230,2012-12-11 13:24:00
8:30 AM,33.8,30.2,87,30.02,1.0,SW,6.9,-,0.01,Snow,Light Snow,230,2012-12-11 13:30:00
8:33 AM,33.8,30.2,87,30.02,2.0,SW,5.8,-,0.01,Snow,Light Snow,230,2012-12-11 13:33:00
8:41 AM,35.6,32.0,87,30.02,4.0,WSW,4.6,-,0.01,,Overcast,250,2012-12-11 13:41:00
8:46 AM,33.8,32.0,93,30.02,2.0,WSW,5.8,-,0.01,Snow,Light Snow,250,2012-12-11 13:46:00
9:01 AM,35.6,30.2,81,30.03,5.0,WSW,6.9,-,0.00,,Overcast,250,2012-12-11 14:01:00
9:38 AM,35.6,30.2,81,30.04,6.0,WSW,5.8,-,0.00,,Overcast,250,2012-12-11 14:38:00
9:54 AM,36.0,30.9,82,30.08,6.0,West,6.9,-,0.00,,Haze,270,2012-12-11 14:54:00
10:10 AM,35.6,30.2,81,30.06,7.0,West,5.8,-,N/A,,Overcast,270,2012-12-11 15:10:00
10:41 AM,37.4,30.2,75,30.07,9.0,West,6.9,-,N/A,,Overcast,260,2012-12-11 15:41:00
10:54 AM,37.0,28.9,73,30.10,10.0,West,11.5,-,N/A,,Overcast,270,2012-12-11 15:54:00
11:54 AM,37.0,30.0,76,30.09,10.0,WSW,8.1,-,N/A,,Overcast,250,2012-12-11 16:54:00
12:54 PM,36.0,30.0,79,30.11,9.0,West,9.2,-,N/A,,Overcast,260,2012-12-11 17:54:00
1:54 PM,36.0,28.9,76,30.11,10.0,SW,10.4,-,0.00,,Overcast,230,2012-12-11 18:54:00
2:54 PM,35.1,28.9,78,30.11,9.0,WSW,8.1,-,N/A,,Overcast,240,2012-12-11 19:54:00
3:54 PM,36.0,27.0,70,30.13,10.0,WSW,10.4,-,N/A,,Overcast,250,2012-12-11 20:54:00
4:54 PM,36.0,26.1,67,30.15,10.0,WSW,9.2,-,N/A,,Overcast,240,2012-12-11 21:54:00
5:54 PM,35.1,21.9,59,30.16,10.0,SW,9.2,-,N/A,,Overcast,230,2012-12-11 22:54:00
6:54 PM,35.1,24.1,64,30.19,10.0,WSW,10.4,-,N/A,,Overcast,240,2012-12-11 23:54:00
7:54 PM,33.1,23.0,66,30.20,10.0,WSW,4.6,-,N/A,,Partly Cloudy,240,2012-12-12 00:54:00
8:54 PM,30.9,23.0,72,30.22,10.0,Calm,Calm,-,N/A,,Clear,0,2012-12-12 01:54:00
9:54 PM,28.0,21.9,78,30.23,10.0,Calm,Calm,-,N/A,,Clear,0,2012-12-12 02:54:00
10:54 PM,28.9,23.0,78,30.24,10.0,SSW,3.5,-,N/A,,Clear,200,2012-12-12 03:54:00
11:54 PM,27.0,23.0,85,30.26,7.0,Calm,Calm,-,N/A,,Clear,0,2012-12-12 04:54:00